Погода в Седмиховке

Россия / Курская область     52°11′00″N   36°34′55″E
темп.,
°C
ветер,
м/с
пор.,
м/с
влажн.,
%
обл.,
%
осадки,
мм/ч
давл.,
гПа
погр.,
м
25 февраля, чт
чт2500:00−10ююз4895100 0.1 1032233
03:00−7юз4896100 0.1 1030257
06:00−4юз4896100 0.1 1027269
09:000зюз61294100 0.1 1025581
12:00+1зюз612100100 0.1 1023349
15:00+2з715100100 0.1 1021386
18:00+2з613100100 0.1 1021333
21:00+2зсз51299100 0.1 1021293
26 февраля, пт
пт2600:00+2з51399100 0.3 1021306
03:00+2з51199100 0.3 1021278
06:00+2з51199100 0.0 1019225
09:00+2з61299100 0.0 1019332
12:00+2зюз814100100 0.0 1016422
15:00+2з81599100 0.1 1015448
18:00+2з71599100 0.1 1013393
21:00+2з6139799 0.1 1013433
27 февраля, сб
сб2700:00+1з51296100 0.0 1012443
03:00+1з61195100 0.0 1011437
06:00+1зсз61197100 0.1 1009561
09:00+1з61294100 0.1 1009539
12:00+1зсз6129884 0.2 1009570
15:00+1зсз6119992 0.3 1009546
18:00+1зсз51097100 0.3 1009412
21:000сз4798100 0.6 1011310
28 февраля, вс
вс2800:000ссз4898100 0.4 1011396
03:00−1ссз4896100 0.6 1013360
06:00−1с4796100 0.1 1015406
09:00−2с489597 0.2 1016434
12:00−1с689089 0.1 1018728
15:00−1ссз578895 0.1 1019802
18:00−2ссз4894100 0.1 1021519
21:00−2ссз5994100 0.3 1023508
1 марта, пн
пн100:00−3с3794100 0.1 1025417
03:00−3ссз3793100 0.2 1026345
06:00−4ссз3695100 0.1 1028273
09:00−4ссз3690100 0.2 1029557
12:00−3ссз358068 0.1 1031790
15:00−3сз348668 0.1 1031562
18:00−5зсз34929 0.0 103185
21:00−5з389440 0.0 1031172